SCP
0 0 0 0 0 0 0 0 0 0 0 0 0 0 0 0 0 0 0 0 0 0 0 0 0 0 0 0 0 0 0 0 0 0 0 0 1 1
0 0 0 0 0 0 0 0 0 0 0 0 0 0 0 0 0 0 0 0 0 0 0 0 0 0 0 0 0 0 0 0 0 0 0 0 0 1
0 0 0 0 0 0 0 0 0 0 0 0 0 0 0 0 0 0 0 0 0 0 0 0 0 0 0 0 0 0 0 0 0 0 0 0 0 0
0 0 0 0 0 0 0 0 0 0 0 0 0 0 0 0 0 0 0 0 0 0 0 0 0 0 0 0 0 0 0 0 0 0 0 0 0 0
0 0 0 0 0 0 0 0 0 0 0 0 0 0 0 0 0 0 0 0 0 0 0 0 0 0 0 0 0 0 0 0 0 0 0 0 0 0
0 0 0 0 0 0 0 0 0 0 0 0 0 0 0 0 0 0 0 0 0 0 0 0 0 0 0 0 0 0 0 0 0 0 0 0 0 0
0 0 0 0 0 0 0 0 0 0 0 0 0 0 0 0 0 0 0 0 0 0 0 0 0 0 0 0 0 0 0 0 0 0 0 0 0 0
0 0 0 0 0 0 0 0 0 0 0 0 0 0 0 0 0 0 0 0 0 0 0 0 0 0 0 0 0 0 0 0 0 0 0 0 0 0
0 0 0 0 0 0 0 0 0 0 0 0 0 0 0 0 0 0 0 0 0 0 0 0 0 0 0 0 0 0 0 0 0 0 0 0 0 0
0 0 0 0 0 0 0 0 0 0 0 0 0 0 0 0 0 0 0 0 0 0 0 0 0 0 0 0 0 0 0 0 0 0 0 0 0 0
0 0 0 0 0 0 0 0 0 0 0 0 0 0 0 0 0 0 0 0 0 0 0 0 0 0 0 0 0 0 0 0 0 0 0 0 0 0
0 0 0 0 0 0 0 0 0 0 0 0 0 0 0 0 0 0 0 0 0 0 0 0 0 0 0 0 0 0 0 0 0 0 0 0 0 0
0 0 0 0 0 0 0 0 0 0 0 0 0 0 0 0 0 0 0 0 0 0 0 0 0 0 0 0 0 0 0 0 0 0 0 0 0 0
0 0 0 0 0 0 0 0 0 0 0 0 0 0 0 0 0 0 0 0 0 0 0 0 0 0 0 0 0 0 0 0 0 0 0 0 0 0
0 0 0 0 0 0 0 0 0 0 0 0 0 0 0 0 0 0 0 0 0 0 0 0 0 0 0 0 0 0 0 0 0 0 0 0 0 0
0 0 0 0 0 0 0 0 0 0 0 0 0 0 0 0 0 0 0 0 0 0 0 0 0 0 0 0 0 0 0 0 0 0 0 0 0 0
0 0 0 0 0 0 0 0 0 0 0 0 0 0 0 0 0 0 0 0 0 0 0 0 0 0 0 0 0 0 0 0 0 0 0 0 0 0
0 0 0 0 0 0 0 0 0 0 0 0 0 0 0 0 0 0 0 0 0 0 0 0 0 0 0 0 0 0 0 0 0 0 0 0 0 0
0 0 0 0 0 0 0 0 0 0 0 0 0 0 0 0 0 0 0 0 0 0 0 0 0 0 0 0 0 0 0 0 0 0 0 0 0 0
0 0 0 0 0 0 0 0 0 0 0 0 0 0 0 0 0 0 0 0 0 0 0 0 0 0 0 0 0 0 0 0 0 0 0 0 0 0
0 0 0 0 0 0 0 0 0 0 0 0 0 0 0 0 0 0 0 0 0 0 0 0 0 0 0 0 0 0 0 0 0 0 0 0 0 0
0 0 0 0 0 0 0 0 0 0 0 0 0 0 0 0 0 0 0 0 0 0 0 0 0 0 0 0 0 0 0 0 0 0 0 0 0 0
0 0 0 0 0 0 0 0 0 0 0 0 0 0 0 0 0 0 0 0 0 0 0 0 0 0 0 0 0 0 0 0 0 0 0 0 0 0
Wind_Speed
3 3 3 2 2 2 2 3 4 4 4 2 1 1 1 1 3 3 3 5 6 7 7 8 8 9 10 10 11 11 12 12 13 13 14 14 15 15
2 2 2 2 1 1 2 2 3 4 3 1 1 1 1 2 4 3 3 6 6 7 7 8 8 9 9 10 11 11 12 12 12 13 13 14 15 15
2 2 2 2 1 1 1 1 2 3 4 2 1 1 1 2 3 3 3 3 4 6 7 8 8 9 10 10 10 11 11 12 12 13 13 14 14 15
2 2 2 1 1 1 1 1 1 1 2 4 2 1 2 2 3 3 3 3 4 6 7 8 9 9 10 10 11 11 11 12 12 13 13 14 14 15
1 1 1 1 1 0 1 1 1 0 1 2 2 1 1 2 3 3 4 3 4 5 7 8 9 10 10 10 11 11 11 11 12 12 13 14 14 15
2 2 1 1 1 0 0 0 0 0 0 1 1 1 1 2 2 3 5 4 5 4 5 7 8 10 10 11 11 11 11 11 12 12 13 14 14 14
3 3 3 3 3 2 1 1 1 0 0 0 1 1 2 2 3 3 4 5 4 2 4 5 5 5 6 9 10 11 11 12 12 12 13 14 14 14
3 3 3 3 4 5 5 4 2 0 1 1 1 1 2 2 3 3 3 4 4 3 4 5 3 4 5 5 10 12 11 12 12 13 13 13 14 14
3 2 2 3 3 3 5 6 5 4 2 0 1 1 2 2 2 3 3 3 4 4 4 4 3 4 5 7 11 11 12 13 13 14 14 14 14 14
3 3 3 3 3 3 3 4 4 4 3 2 1 1 1 2 2 2 3 3 4 3 3 4 4 5 6 6 8 10 12 13 14 15 15 15 15 15
4 3 3 3 4 5 4 3 3 4 5 6 5 5 5 5 4 2 2 2 3 3 2 3 4 6 5 4 5 10 13 14 14 15 15 15 15 14
3 3 4 4 5 5 3 3 2 2 3 4 5 5 4 4 5 2 1 1 2 3 2 3 3 4 5 4 5 6 7 11 14 15 15 15 16 10
2 2 3 5 5 5 4 3 2 2 2 2 2 3 3 3 3 3 3 2 2 3 3 3 3 3 3 6 6 5 5 7 8 9 12 15 16 12
2 2 3 5 5 5 4 5 5 4 2 2 2 2 2 3 3 4 4 3 3 4 4 3 3 3 4 5 6 6 6 6 7 7 7 12 13 13
3 4 5 6 5 4 6 6 4 3 2 2 1 2 2 3 3 3 3 4 4 4 3 3 3 4 4 5 6 6 7 6 5 7 8 8 8 8
4 4 6 7 6 6 5 4 3 2 2 1 1 2 2 2 3 3 3 4 3 4 4 4 5 5 4 5 6 7 6 6 7 8 8 8 7 6
4 3 3 3 3 3 3 3 3 2 2 2 2 2 2 3 3 3 3 3 2 4 5 5 5 5 5 6 5 5 6 6 6 8 8 9 8 7
5 3 2 2 2 1 2 2 2 2 2 2 1 2 2 2 3 3 2 2 3 4 4 5 6 5 4 3 4 5 5 6 7 7 7 8 9 8
4 2 2 1 1 1 1 1 1 2 2 1 1 2 2 2 2 2 3 3 3 3 4 4 4 4 5 7 6 5 6 7 8 8 7 7 9 10
2 2 1 1 1 1 0 0 1 1 1 1 2 2 2 2 2 2 2 3 3 3 4 3 3 3 3 5 6 7 10 8 7 8 8 8 8 10
1 1 1 1 1 1 0 0 0 1 1 1 1 2 2 1 2 2 2 3 3 2 3 4 5 6 4 3 4 6 6 9 11 8 9 8 8 7
2 2 1 2 1 1 1 1 1 1 1 1 1 1 1 1 2 2 2 2 3 3 4 4 5 4 3 3 5 7 9 9 10 13 11 9 7 7
2 2 2 2 2 2 1 1 1 1 1 1 1 1 1 2 2 2 2 2 2 3 3 4 4 3 3 3 5 6 9 10 9 9 8 12 13 12
Wind_Direction
203 202 212 222 219 226 229 224 232 256 261 229 230 337 337 356 351 339 334 347 346 343 345 346 344 341 338 339 336 336 335 335 335 333 332 332 331 331
191 188 207 219 221 225 226 237 236 243 254 243 237 326 347 352 349 333 333 343 344 342 342 345 340 338 337 336 336 335 334 334 334 332 332 331 330 328
190 188 204 195 205 232 225 228 241 241 251 267 269 329 331 343 338 332 336 334 334 341 340 346 342 340 338 338 338 336 334 333 333 332 332 331 329 326
190 183 206 198 203 222 215 224 243 248 243 262 283 314 306 327 326 329 338 338 333 340 344 345 342 340 339 339 337 335 334 332 332 332 330 328 326 324
133 157 181 165 196 237 207 221 245 261 247 251 277 304 314 342 337 338 339 341 340 339 342 341 338 338 339 338 336 334 332 331 331 330 328 326 325 324
86 87 83 89 97 80 11 298 20 17 315 274 291 323 332 348 352 341 336 341 332 336 339 337 332 337 338 334 331 330 329 330 329 329 328 325 323 321
82 72 70 68 66 63 53 37 58 58 10 335 303 330 339 350 337 330 320 323 318 337 331 328 326 325 328 327 326 327 327 327 328 327 325 323 321 319
97 82 76 72 70 70 65 56 54 39 289 284 288 304 315 321 327 331 325 326 314 333 331 312 316 311 316 314 319 325 327 326 326 326 324 322 320 318
95 92 75 60 60 75 68 57 48 47 51 284 274 294 308 317 321 323 319 306 290 307 315 295 306 304 311 313 318 322 329 331 329 328 325 322 320 318
81 83 86 67 53 73 75 64 47 37 39 42 38 355 356 356 341 304 295 302 299 304 325 294 307 306 309 303 308 324 333 331 329 328 326 324 321 318
80 76 83 81 72 80 84 77 57 38 41 49 48 43 39 36 29 27 353 336 308 306 340 314 307 310 301 293 305 324 329 327 326 325 325 324 324 322
85 78 77 81 75 76 80 85 71 34 34 31 36 33 27 26 30 23 335 314 314 297 332 330 313 329 314 302 311 316 321 322 325 326 325 326 328 326
98 82 77 79 73 70 71 71 81 75 57 47 35 26 20 13 7 359 347 320 293 275 298 327 306 315 294 300 304 308 317 322 324 323 324 326 327 328
106 92 89 84 75 70 68 72 74 74 68 60 40 16 1 350 344 341 337 329 308 286 291 304 288 298 298 295 295 307 315 320 322 322 325 327 329 327
98 103 92 84 73 65 70 67 63 62 68 59 17 342 337 333 339 338 342 340 331 321 320 320 306 295 285 276 290 301 314 317 321 323 324 324 322 323
90 90 87 81 75 67 57 52 46 44 46 41 358 337 341 345 347 345 337 338 339 330 336 340 328 307 291 283 280 290 302 305 317 322 322 317 316 314
105 81 67 67 61 51 47 44 40 37 35 24 10 348 347 349 342 345 340 337 334 323 326 334 335 317 290 282 288 288 300 307 311 320 324 319 317 318
110 106 99 87 83 70 53 33 25 21 11 5 358 342 336 334 331 334 339 330 318 314 320 328 335 340 336 309 283 297 312 316 319 322 320 318 315 318
106 110 115 115 104 87 60 31 357 357 356 350 342 332 325 323 324 328 329 326 320 315 316 322 334 348 339 326 317 330 325 322 322 321 319 315 309 311
104 130 145 142 128 135 113 22 3 353 352 344 335 324 317 314 318 317 314 311 312 315 318 324 331 334 312 297 299 307 322 321 322 320 318 314 304 307
149 159 166 164 162 165 179 190 238 288 312 310 307 317 320 320 311 308 308 310 310 311 315 317 316 318 306 305 306 305 312 327 326 318 318 319 321 322
181 188 188 184 181 181 188 194 223 256 277 281 294 307 308 300 297 300 302 305 304 301 299 304 313 325 333 320 311 310 316 324 331 333 329 320 319 318
197 199 197 192 192 187 187 196 213 240 248 259 285 297 302 304 300 295 295 296 301 310 320 322 329 338 332 321 315 315 318 325 329 334 334 339 333 320